| time (UTC) | temp C | wind direction | speed KPH | gust KPH | rain 1hr cm | rain 24hr cm | rain mn cm | humidity % | barometer mb |
| 20260506080939 | 13 | 13 | 8.0 | 9.7 | 0.00 | 0.00 | 0.00 | 74 | 1007.7 |
| 20260506080436 | 13 | 29 | 6.4 | 8.0 | 0.00 | 0.00 | 0.00 | 74 | 1007.4 |
| 20260506073420 | 14 | 16 | 9.7 | 17.7 | 0.00 | 0.00 | 0.00 | 74 | 1007.7 |
| 20260506072917 | 14 | 18 | 6.4 | 11.3 | 0.00 | 0.00 | 0.00 | 74 | 1007.8 |
| 20260506072414 | 14 | 26 | 9.7 | 14.5 | 0.00 | 0.00 | 0.00 | 75 | 1008.0 |
| 20260506071912 | 14 | 36 | 6.4 | 9.7 | 0.00 | 0.00 | 0.00 | 75 | 1007.7 |
| 20260506071410 | 14 | 12 | 4.8 | 9.7 | 0.00 | 0.00 | 0.00 | 75 | 1007.6 |
| 20260506070906 | 14 | 0 | 4.8 | 14.5 | 0.00 | 0.00 | 0.00 | 75 | 1008.0 |
| 20260506070403 | 14 | 9 | 9.7 | 12.9 | 0.00 | 0.00 | 0.00 | 74 | 1007.9 |
| 20260506062341 | 15 | 347 | 8.0 | 14.5 | 0.00 | 0.00 | 0.00 | 75 | 1007.7 |
| 20260506061836 | 15 | 350 | 8.0 | 16.1 | 0.00 | 0.00 | 0.00 | 75 | 1007.8 |
| 20260506061333 | 15 | 17 | 14.5 | 19.3 | 0.00 | 0.00 | 0.00 | 75 | 1007.6 |
| 20260506060832 | 15 | 334 | 8.0 | 14.5 | 0.00 | 0.00 | 0.00 | 75 | 1007.8 |
| 20260506060329 | 15 | 351 | 16.1 | 16.1 | 0.00 | 0.00 | 0.00 | 76 | 1007.6 |
| 20260506051301 | 16 | 26 | 14.5 | 19.3 | 0.00 | 0.00 | 0.00 | 76 | 1007.5 |
| 20260506050759 | 16 | 11 | 11.3 | 19.3 | 0.00 | 0.00 | 0.00 | 77 | 1007.3 |
| 20260506050256 | 16 | 342 | 8.0 | 14.5 | 0.00 | 0.00 | 0.00 | 77 | 1007.3 |
| 20260506044747 | 17 | 8 | 17.7 | 17.7 | 0.00 | 0.00 | 0.00 | 77 | 1007.5 |
| 20260506044244 | 17 | 23 | 6.4 | 11.3 | 0.00 | 0.00 | 0.00 | 78 | 1007.3 |
| 20260506043741 | 17 | 359 | 8.0 | 12.9 | 0.00 | 0.00 | 0.00 | 77 | 1007.2 |
| 20260506043238 | 17 | 20 | 12.9 | 17.7 | 0.00 | 0.00 | 0.00 | 77 | 1007.3 |
| 20260506042737 | 17 | 32 | 9.7 | 14.5 | 0.00 | 0.00 | 0.00 | 77 | 1007.2 |
| 20260506042235 | 17 | 9 | 14.5 | 17.7 | 0.00 | 0.00 | 0.00 | 77 | 1006.8 |
| 20260506041733 | 17 | 69 | 6.4 | 9.7 | 0.00 | 0.00 | 0.00 | 77 | 1006.6 |
| 20260506041230 | 18 | 352 | 8.0 | 12.9 | 0.00 | 0.00 | 0.00 | 77 | 1006.8 |
| 20260506040728 | 18 | 343 | 6.4 | 17.7 | 0.00 | 0.00 | 0.00 | 76 | 1007.0 |
| 20260506040225 | 18 | 6 | 11.3 | 17.7 | 0.00 | 0.00 | 0.00 | 76 | 1006.9 |
| 20260506035721 | 18 | 350 | 16.1 | 19.3 | 0.00 | 0.00 | 0.00 | 75 | 1006.9 |
| 20260506035218 | 18 | 333 | 14.5 | 16.1 | 0.00 | 0.00 | 0.00 | 75 | 1006.8 |
| 20260506034715 | 18 | 1 | 14.5 | 19.3 | 0.00 | 0.00 | 0.00 | 75 | 1006.6 |
| 20260506034212 | 19 | 344 | 6.4 | 17.7 | 0.00 | 0.00 | 0.00 | 75 | 1006.5 |
| 20260506033710 | 19 | 0 | 11.3 | 17.7 | 0.00 | 0.00 | 0.00 | 75 | 1006.8 |
| 20260506033206 | 20 | 351 | 9.7 | 17.7 | 0.00 | 0.00 | 0.00 | 75 | 1006.5 |
| 20260506032703 | 20 | 346 | 11.3 | 19.3 | 0.00 | 0.00 | 0.00 | 75 | 1006.5 |
| 20260506032200 | 20 | 345 | 4.8 | 17.7 | 0.00 | 0.00 | 0.00 | 75 | 1006.1 |
| 20260506031657 | 20 | 7 | 9.7 | 14.5 | 0.00 | 0.00 | 0.00 | 75 | 1006.1 |
| 20260506031154 | 20 | 354 | 14.5 | 19.3 | 0.00 | 0.00 | 0.00 | 74 | 1006.0 |
| 20260506030653 | 20 | 355 | 9.7 | 17.7 | 0.00 | 0.00 | 0.00 | 74 | 1006.1 |
| 20260506030149 | 21 | 12 | 11.3 | 16.1 | 0.00 | 0.00 | 0.00 | 74 | 1006.1 |
| 20260506025646 | 21 | 3 | 8.0 | 11.3 | 0.00 | 0.00 | 0.00 | 74 | 1005.8 |
| 20260506025142 | 21 | 343 | 14.5 | 19.3 | 0.00 | 0.00 | 0.00 | 73 | 1005.9 |
| 20260506024640 | 21 | 339 | 9.7 | 17.7 | 0.00 | 0.00 | 0.00 | 73 | 1005.4 |
| 20260506024136 | 21 | 4 | 12.9 | 14.5 | 0.00 | 0.00 | 0.00 | 73 | 1005.5 |
| 20260506023632 | 21 | 3 | 9.7 | 14.5 | 0.00 | 0.00 | 0.00 | 73 | 1005.1 |
| 20260506023130 | 21 | 1 | 8.0 | 16.1 | 0.00 | 0.00 | 0.00 | 73 | 1005.1 |
| 20260506022627 | 21 | 357 | 14.5 | 19.3 | 0.00 | 0.00 | 0.00 | 72 | 1005.0 |
| 20260506022124 | 22 | 6 | 11.3 | 16.1 | 0.00 | 0.00 | 0.00 | 72 | 1005.0 |
| 20260506021622 | 22 | 8 | 11.3 | 14.5 | 0.00 | 0.00 | 0.00 | 72 | 1004.4 |
| 20260506021119 | 22 | 14 | 6.4 | 14.5 | 0.00 | 0.00 | 0.00 | 72 | 1004.2 |
| 20260506020616 | 23 | 354 | 11.3 | 16.1 | 0.00 | 0.00 | 0.00 | 72 | 1004.7 |
| 20260506020114 | 23 | 333 | 3.2 | 12.9 | 0.00 | 0.00 | 0.00 | 71 | 1004.6 |
| 20260506015611 | 23 | 344 | 4.8 | 11.3 | 0.00 | 0.00 | 0.00 | 71 | 1004.7 |
| 20260506015108 | 23 | 350 | 4.8 | 8.0 | 0.00 | 0.00 | 0.00 | 71 | 1004.3 |
| 20260506014606 | 23 | 16 | 8.0 | 8.0 | 0.00 | 0.00 | 0.00 | 71 | 1004.4 |
| 20260506014101 | 23 | 358 | 4.8 | 6.4 | 0.00 | 0.00 | 0.00 | 70 | 1004.0 |
| 20260506013559 | 23 | 12 | 11.3 | 12.9 | 0.00 | 0.00 | 0.00 | 69 | 1004.1 |
| 20260506013056 | 23 | 350 | 8.0 | 8.0 | 0.00 | 0.00 | 0.00 | 69 | 1004.3 |
| 20260506012552 | 23 | 3 | 8.0 | 11.3 | 0.00 | 0.00 | 0.00 | 69 | 1004.5 |
| 20260506012048 | 23 | 329 | 4.8 | 8.0 | 0.00 | 0.00 | 0.00 | 69 | 1004.0 |
| 20260506011547 | 23 | 355 | 6.4 | 6.4 | 0.00 | 0.00 | 0.00 | 69 | 1003.8 |
| 20260506011043 | 24 | 343 | 3.2 | 6.4 | 0.00 | 0.00 | 0.00 | 68 | 1003.5 |
| 20260506010542 | 24 | 20 | 4.8 | 6.4 | 0.00 | 0.00 | 0.00 | 67 | 1003.6 |
| 20260506010038 | 24 | 335 | 6.4 | 9.7 | 0.00 | 0.00 | 0.00 | 67 | 1003.8 |
| 20260506005535 | 24 | 290 | 8.0 | 9.7 | 0.00 | 0.00 | 0.00 | 67 | 1004.1 |
| 20260506005031 | 25 | 340 | 4.8 | 8.0 | 0.00 | 0.00 | 0.00 | 66 | 1004.0 |
| 20260506004529 | 25 | 13 | 12.9 | 17.7 | 0.00 | 0.00 | 0.00 | 64 | 1004.0 |
| 20260506004025 | 25 | 325 | 8.0 | 9.7 | 0.00 | 0.00 | 0.00 | 64 | 1003.5 |
| 20260506003522 | 26 | 349 | 6.4 | 8.0 | 0.00 | 0.00 | 0.00 | 63 | 1003.7 |
| 20260506003018 | 26 | 323 | 6.4 | 9.7 | 0.00 | 0.00 | 0.00 | 62 | 1003.8 |
| 20260506002514 | 26 | 349 | 4.8 | 6.4 | 0.00 | 0.00 | 0.00 | 62 | 1004.2 |
| 20260506002009 | 26 | 357 | 4.8 | 16.1 | 0.00 | 0.00 | 0.00 | 61 | 1003.9 |
| 20260506001507 | 27 | 332 | 4.8 | 9.7 | 0.00 | 0.00 | 0.00 | 60 | 1003.7 |
| 20260506001004 | 27 | 314 | 8.0 | 12.9 | 0.00 | 0.00 | 0.00 | 61 | 1003.6 |
| 20260506000501 | 27 | 329 | 0.0 | 3.2 | 0.00 | 0.00 | 0.00 | 69 | 1003.0 |
| 20260505235958 | 27 | 271 | 1.6 | 3.2 | 0.00 | 0.00 | 0.00 | 70 | 1003.0 |
| 20260505235456 | 28 | 293 | 3.2 | 4.8 | 0.00 | 0.00 | 0.00 | 69 | 1002.9 |
| 20260505234953 | 28 | 258 | 3.2 | 4.8 | 0.00 | 0.00 | 0.00 | 67 | 1003.1 |
| 20260505234450 | 28 | 159 | 3.2 | 8.0 | 0.00 | 0.00 | 0.00 | 67 | 1002.9 |
| 20260505233947 | 28 | 153 | 3.2 | 9.7 | 0.00 | 0.00 | 0.00 | 66 | 1002.9 |
| 20260505233444 | 28 | 147 | 6.4 | 11.3 | 0.00 | 0.00 | 0.00 | 66 | 1002.7 |
| 20260505232942 | 29 | 166 | 6.4 | 8.0 | 0.00 | 0.00 | 0.00 | 66 | 1002.6 |
| 20260505232440 | 29 | 202 | 1.6 | 9.7 | 0.00 | 0.00 | 0.00 | 65 | 1002.6 |
| 20260505231936 | 29 | 158 | 4.8 | 11.3 | 0.00 | 0.00 | 0.00 | 65 | 1002.8 |
| 20260505231434 | 29 | 148 | 1.6 | 8.0 | 0.00 | 0.00 | 0.00 | 65 | 1002.6 |
| 20260505230932 | 30 | 212 | 8.0 | 9.7 | 0.00 | 0.00 | 0.00 | 64 | 1002.2 |
| 20260505230429 | 30 | 176 | 9.7 | 11.3 | 0.00 | 0.00 | 0.00 | 62 | 1002.5 |
| 20260505225925 | 31 | 153 | 9.7 | 9.7 | 0.00 | 0.00 | 0.00 | 61 | 1002.7 |
| 20260505225423 | 30 | 159 | 8.0 | 9.7 | 0.00 | 0.00 | 0.00 | 62 | 1002.7 |
| 20260505224918 | 30 | 189 | 3.2 | 6.4 | 0.00 | 0.00 | 0.00 | 63 | 1002.7 |
| 20260505224416 | 30 | 203 | 4.8 | 11.3 | 0.00 | 0.00 | 0.00 | 63 | 1002.6 |
| 20260505223912 | 30 | 212 | 4.8 | 16.1 | 0.00 | 0.00 | 0.00 | 61 | 1002.5 |
| 20260505223409 | 31 | 238 | 6.4 | 16.1 | 0.00 | 0.00 | 0.00 | 60 | 1002.2 |
| 20260505222905 | 31 | 164 | 6.4 | 8.0 | 0.00 | 0.00 | 0.00 | 58 | 1002.1 |
| 20260505222402 | 31 | 149 | 6.4 | 6.4 | 0.00 | 0.00 | 0.00 | 57 | 1002.2 |
| 20260505221858 | 31 | 170 | 3.2 | 14.5 | 0.00 | 0.00 | 0.00 | 58 | 1002.3 |
| 20260505221355 | 31 | 174 | 6.4 | 12.9 | 0.00 | 0.00 | 0.00 | 57 | 1002.3 |
| 20260505220853 | 32 | 156 | 3.2 | 8.0 | 0.00 | 0.00 | 0.00 | 57 | 1002.5 |
| 20260505220349 | 31 | 180 | 6.4 | 11.3 | 0.00 | 0.00 | 0.00 | 57 | 1002.5 |
| 20260505215847 | 31 | 181 | 3.2 | 11.3 | 0.00 | 0.00 | 0.00 | 58 | 1002.4 |
| 20260505215345 | 31 | 203 | 3.2 | 8.0 | 0.00 | 0.00 | 0.00 | 57 | 1002.5 |
| 20260505214843 | 31 | 172 | 6.4 | 11.3 | 0.00 | 0.00 | 0.00 | 57 | 1002.7 |
| 20260505214340 | 32 | 196 | 4.8 | 12.9 | 0.00 | 0.00 | 0.00 | 57 | 1002.6 |
| 20260505213837 | 31 | 184 | 3.2 | 9.7 | 0.00 | 0.00 | 0.00 | 58 | 1002.4 |
| 20260505213335 | 31 | 179 | 4.8 | 8.0 | 0.00 | 0.00 | 0.00 | 57 | 1002.6 |
| 20260505212831 | 31 | 237 | 8.0 | 11.3 | 0.00 | 0.00 | 0.00 | 57 | 1002.5 |
| 20260505212328 | 31 | 156 | 9.7 | 9.7 | 0.00 | 0.00 | 0.00 | 56 | 1002.8 |
| 20260505211824 | 31 | 200 | 8.0 | 16.1 | 0.00 | 0.00 | 0.00 | 57 | 1002.8 |
| 20260505211322 | 31 | 161 | 4.8 | 11.3 | 0.00 | 0.00 | 0.00 | 59 | 1002.8 |
| 20260505210818 | 31 | 180 | 3.2 | 11.3 | 0.00 | 0.00 | 0.00 | 60 | 1002.8 |
| 20260505210315 | 31 | 217 | 9.7 | 20.9 | 0.00 | 0.00 | 0.00 | 59 | 1002.7 |
| 20260505205812 | 31 | 189 | 6.4 | 16.1 | 0.00 | 0.00 | 0.00 | 59 | 1002.8 |
| 20260505205310 | 31 | 144 | 3.2 | 17.7 | 0.00 | 0.00 | 0.00 | 60 | 1002.7 |
| 20260505204807 | 31 | 191 | 6.4 | 19.3 | 0.00 | 0.00 | 0.00 | 60 | 1003.1 |
| 20260505204305 | 31 | 188 | 4.8 | 11.3 | 0.00 | 0.00 | 0.00 | 59 | 1003.2 |
| 20260505203801 | 31 | 185 | 6.4 | 14.5 | 0.00 | 0.00 | 0.00 | 59 | 1003.3 |
| 20260505203258 | 30 | 218 | 6.4 | 12.9 | 0.00 | 0.00 | 0.00 | 61 | 1003.1 |
| 20260505202754 | 30 | 172 | 11.3 | 14.5 | 0.00 | 0.00 | 0.00 | 60 | 1003.3 |
| 20260505202251 | 30 | 170 | 6.4 | 11.3 | 0.00 | 0.00 | 0.00 | 61 | 1003.1 |
| 20260505201747 | 30 | 179 | 1.6 | 19.3 | 0.00 | 0.00 | 0.00 | 62 | 1002.9 |
| 20260505201245 | 30 | 162 | 6.4 | 9.7 | 0.00 | 0.00 | 0.00 | 61 | 1003.1 |
| 20260505200743 | 30 | 203 | 6.4 | 20.9 | 0.00 | 0.00 | 0.00 | 61 | 1003.4 |
| 20260505200240 | 30 | 202 | 1.6 | 9.7 | 0.00 | 0.00 | 0.00 | 63 | 1003.4 |
| 20260505195735 | 30 | 201 | 11.3 | 20.9 | 0.00 | 0.00 | 0.00 | 63 | 1003.1 |
| 20260505195233 | 30 | 157 | 8.0 | 14.5 | 0.00 | 0.00 | 0.00 | 63 | 1003.4 |
| 20260505194730 | 29 | 178 | 4.8 | 9.7 | 0.00 | 0.00 | 0.00 | 65 | 1003.5 |
| 20260505194226 | 29 | 172 | 4.8 | 20.9 | 0.00 | 0.00 | 0.00 | 64 | 1003.5 |
| 20260505193722 | 29 | 53 | 3.2 | 12.9 | 0.00 | 0.00 | 0.00 | 64 | 1003.3 |
| 20260505193220 | 29 | 176 | 3.2 | 11.3 | 0.00 | 0.00 | 0.00 | 65 | 1003.4 |
| 20260505192718 | 29 | 229 | 9.7 | 12.9 | 0.00 | 0.00 | 0.00 | 64 | 1003.4 |
| 20260505192216 | 28 | 353 | 0.0 | 11.3 | 0.00 | 0.00 | 0.00 | 66 | 1003.4 |
| 20260505191714 | 28 | 204 | 4.8 | 20.9 | 0.00 | 0.00 | 0.00 | 66 | 1003.3 |
| 20260505191212 | 28 | 227 | 6.4 | 8.0 | 0.00 | 0.00 | 0.00 | 68 | 1003.4 |
| 20260505190708 | 28 | 178 | 3.2 | 24.1 | 0.00 | 0.00 | 0.00 | 65 | 1003.3 |
| 20260505190207 | 28 | 145 | 12.9 | 17.7 | 0.00 | 0.00 | 0.00 | 65 | 1003.3 |
| 20260505185704 | 28 | 159 | 8.0 | 11.3 | 0.00 | 0.00 | 0.00 | 66 | 1003.4 |
| 20260505185201 | 28 | 167 | 4.8 | 16.1 | 0.00 | 0.00 | 0.00 | 66 | 1003.2 |
| 20260505184657 | 27 | 223 | 6.4 | 20.9 | 0.00 | 0.00 | 0.00 | 67 | 1003.6 |
| 20260505184154 | 27 | 174 | 6.4 | 20.9 | 0.00 | 0.00 | 0.00 | 67 | 1003.6 |
| 20260505183651 | 28 | 152 | 8.0 | 12.9 | 0.00 | 0.00 | 0.00 | 66 | 1003.4 |
| 20260505183149 | 28 | 174 | 6.4 | 14.5 | 0.00 | 0.00 | 0.00 | 66 | 1003.3 |
| 20260505182645 | 28 | 205 | 11.3 | 19.3 | 0.00 | 0.00 | 0.00 | 65 | 1003.5 |
| 20260505182142 | 28 | 183 | 8.0 | 11.3 | 0.00 | 0.00 | 0.00 | 63 | 1003.6 |
| 20260505181638 | 28 | 229 | 14.5 | 17.7 | 0.00 | 0.00 | 0.00 | 65 | 1003.5 |
| 20260505181136 | 28 | 220 | 11.3 | 20.9 | 0.00 | 0.00 | 0.00 | 65 | 1003.4 |
| 20260505180632 | 28 | 255 | 4.8 | 25.7 | 0.00 | 0.00 | 0.00 | 64 | 1003.5 |
| 20260505180129 | 28 | 168 | 8.0 | 16.1 | 0.00 | 0.00 | 0.00 | 66 | 1003.3 |
| 20260505175625 | 28 | 196 | 9.7 | 12.9 | 0.00 | 0.00 | 0.00 | 66 | 1003.4 |
| 20260505175122 | 27 | 217 | 9.7 | 12.9 | 0.00 | 0.00 | 0.00 | 67 | 1003.5 |
| 20260505174618 | 27 | 167 | 8.0 | 16.1 | 0.00 | 0.00 | 0.00 | 68 | 1003.6 |
| 20260505174114 | 27 | 180 | 6.4 | 17.7 | 0.00 | 0.00 | 0.00 | 67 | 1003.4 |
| 20260505173611 | 27 | 173 | 8.0 | 16.1 | 0.00 | 0.00 | 0.00 | 66 | 1003.6 |
| 20260505173108 | 27 | 174 | 3.2 | 17.7 | 0.00 | 0.00 | 0.00 | 68 | 1003.3 |
| 20260505172606 | 27 | 56 | 1.6 | 17.7 | 0.00 | 0.00 | 0.00 | 68 | 1003.5 |
| 20260505172103 | 26 | 174 | 4.8 | 17.7 | 0.00 | 0.00 | 0.00 | 70 | 1003.6 |
| 20260505171603 | 26 | 154 | 11.3 | 24.1 | 0.00 | 0.00 | 0.00 | 69 | 1004.0 |
| 20260505171100 | 27 | 173 | 8.0 | 14.5 | 0.00 | 0.00 | 0.00 | 68 | 1003.8 |
| 20260505170557 | 27 | 189 | 9.7 | 12.9 | 0.00 | 0.00 | 0.00 | 68 | 1003.8 |
| 20260505170053 | 27 | 177 | 9.7 | 22.5 | 0.00 | 0.00 | 0.00 | 68 | 1003.4 |
| 20260505165548 | 27 | 248 | 6.4 | 12.9 | 0.00 | 0.00 | 0.00 | 70 | 1003.6 |
| 20260505165045 | 26 | 186 | 6.4 | 17.7 | 0.00 | 0.00 | 0.00 | 69 | 1003.5 |
| 20260505164540 | 26 | 178 | 4.8 | 20.9 | 0.00 | 0.00 | 0.00 | 71 | 1003.6 |
| 20260505164038 | 26 | 195 | 3.2 | 20.9 | 0.00 | 0.00 | 0.00 | 70 | 1003.8 |
| 20260505163537 | 26 | 182 | 12.9 | 14.5 | 0.00 | 0.00 | 0.00 | 71 | 1003.6 |
| 20260505163034 | 26 | 168 | 9.7 | 17.7 | 0.00 | 0.00 | 0.00 | 72 | 1003.6 |
| 20260505162532 | 25 | 178 | 8.0 | 30.6 | 0.00 | 0.00 | 0.00 | 72 | 1003.2 |
| 20260505162029 | 25 | 211 | 6.4 | 22.5 | 0.00 | 0.00 | 0.00 | 72 | 1003.4 |
| 20260505161525 | 25 | 187 | 6.4 | 19.3 | 0.00 | 0.00 | 0.00 | 72 | 1003.3 |
| 20260505161023 | 26 | 237 | 3.2 | 24.1 | 0.00 | 0.00 | 0.00 | 71 | 1003.2 |
| 20260505160521 | 25 | 261 | 4.8 | 12.9 | 0.00 | 0.00 | 0.00 | 73 | 1003.1 |
| 20260505152957 | 25 | 208 | 6.4 | 19.3 | 0.00 | 0.00 | 0.00 | 74 | 1003.3 |
| 20260505152455 | 24 | 210 | 11.3 | 25.7 | 0.00 | 0.00 | 0.00 | 76 | 1003.2 |
| 20260505151949 | 24 | 177 | 6.4 | 30.6 | 0.00 | 0.00 | 0.00 | 75 | 1003.4 |
| 20260505151445 | 24 | 157 | 9.7 | 22.5 | 0.00 | 0.00 | 0.00 | 76 | 1003.4 |
| 20260505150943 | 24 | 219 | 6.4 | 27.4 | 0.00 | 0.00 | 0.00 | 76 | 1003.1 |
| 20260505150439 | 24 | 200 | 9.7 | 20.9 | 0.00 | 0.00 | 0.00 | 76 | 1003.2 |
| 20260505140410 | 23 | 178 | 8.0 | 20.9 | 0.00 | 0.00 | 0.00 | 79 | 1003.0 |
| 20260505124823 | 22 | 155 | 8.0 | 11.3 | 0.00 | 0.00 | 0.00 | 81 | 1002.8 |
| 20260505124320 | 22 | 223 | 3.2 | 20.9 | 0.00 | 0.00 | 0.00 | 81 | 1002.8 |
| 20260505123816 | 22 | 149 | 9.7 | 17.7 | 0.00 | 0.00 | 0.00 | 82 | 1002.7 |
| 20260505123313 | 22 | 205 | 12.9 | 16.1 | 0.00 | 0.00 | 0.00 | 82 | 1002.5 |
| 20260505122809 | 22 | 146 | 1.6 | 17.7 | 0.00 | 0.00 | 0.00 | 82 | 1002.6 |
| 20260505122306 | 22 | 215 | 4.8 | 22.5 | 0.00 | 0.00 | 0.00 | 82 | 1002.7 |
| 20260505121802 | 22 | 155 | 20.9 | 29.0 | 0.00 | 0.00 | 0.00 | 82 | 1002.5 |
| 20260505121300 | 21 | 166 | 4.8 | 9.7 | 0.00 | 0.00 | 0.00 | 82 | 1002.4 |
| 20260505120756 | 21 | 161 | 9.7 | 11.3 | 0.00 | 0.00 | 0.00 | 82 | 1002.6 |
| 20260505120252 | 21 | 163 | 8.0 | 19.3 | 0.00 | 0.00 | 0.00 | 82 | 1002.4 |
| 20260505115751 | 21 | 192 | 4.8 | 17.7 | 0.00 | 0.00 | 0.00 | 82 | 1002.3 |
| 20260505115248 | 21 | 138 | 3.2 | 14.5 | 0.00 | 0.00 | 0.00 | 82 | 1002.4 |
| 20260505114746 | 21 | 178 | 11.3 | 17.7 | 0.00 | 0.00 | 0.00 | 82 | 1002.4 |
| 20260505114242 | 21 | 182 | 4.8 | 17.7 | 0.00 | 0.00 | 0.00 | 82 | 1001.8 |
| 20260505113739 | 21 | 206 | 6.4 | 17.7 | 0.00 | 0.00 | 0.00 | 82 | 1002.2 |
| 20260505113235 | 21 | 196 | 6.4 | 14.5 | 0.00 | 0.00 | 0.00 | 82 | 1002.2 |
| 20260505112731 | 21 | 168 | 4.8 | 16.1 | 0.00 | 0.00 | 0.00 | 82 | 1002.0 |
| 20260505112229 | 21 | 212 | 6.4 | 14.5 | 0.00 | 0.00 | 0.00 | 82 | 1002.3 |
| 20260505111729 | 21 | 148 | 4.8 | 17.7 | 0.00 | 0.00 | 0.00 | 82 | 1002.1 |
| 20260505111225 | 21 | 140 | 3.2 | 14.5 | 0.00 | 0.00 | 0.00 | 82 | 1002.1 |
| 20260505110721 | 21 | 168 | 8.0 | 12.9 | 0.00 | 0.00 | 0.00 | 82 | 1001.7 |
| 20260505110219 | 21 | 161 | 4.8 | 17.7 | 0.00 | 0.00 | 0.00 | 82 | 1001.7 |
| 20260505102154 | 21 | 163 | 4.8 | 14.5 | 0.00 | 0.00 | 0.00 | 82 | 1002.3 |
| 20260505101653 | 21 | 186 | 9.7 | 12.9 | 0.00 | 0.00 | 0.00 | 81 | 1002.0 |
| 20260505101149 | 21 | 169 | 4.8 | 17.7 | 0.00 | 0.00 | 0.00 | 81 | 1002.1 |
| 20260505100645 | 21 | 79 | 4.8 | 12.9 | 0.00 | 0.00 | 0.00 | 82 | 1002.3 |
| 20260505100142 | 21 | 152 | 6.4 | 12.9 | 0.00 | 0.00 | 0.00 | 82 | 1002.2 |
| 20260505095638 | 21 | 191 | 9.7 | 12.9 | 0.00 | 0.00 | 0.00 | 82 | 1002.5 |
| 20260505095135 | 21 | 159 | 6.4 | 14.5 | 0.00 | 0.00 | 0.00 | 82 | 1002.6 |
| 20260505094631 | 21 | 119 | 14.5 | 27.4 | 0.00 | 0.00 | 0.00 | 82 | 1002.5 |
| 20260505094128 | 21 | 109 | 1.6 | 17.7 | 0.00 | 0.00 | 0.00 | 82 | 1002.5 |
| 20260505093624 | 21 | 169 | 12.9 | 27.4 | 0.00 | 0.00 | 0.00 | 82 | 1002.5 |
| 20260505093121 | 21 | 133 | 6.4 | 19.3 | 0.00 | 0.00 | 0.00 | 82 | 1002.4 |
| 20260505092618 | 21 | 153 | 9.7 | 19.3 | 0.00 | 0.00 | 0.00 | 82 | 1002.8 |
| 20260505092118 | 21 | 210 | 6.4 | 19.3 | 0.00 | 0.00 | 0.00 | 82 | 1002.6 |
| 20260505091613 | 21 | 160 | 8.0 | 20.9 | 0.00 | 0.00 | 0.00 | 82 | 1002.8 |
| 20260505091112 | 21 | 168 | 3.2 | 14.5 | 0.00 | 0.00 | 0.00 | 82 | 1002.4 |
| 20260505090609 | 21 | 160 | 16.1 | 17.7 | 0.00 | 0.00 | 0.00 | 82 | 1002.4 |
| 20260505090107 | 21 | 162 | 12.9 | 19.3 | 0.00 | 0.00 | 0.00 | 82 | 1002.4 |
| 20260505085604 | 21 | 182 | 12.9 | 17.7 | 0.00 | 0.00 | 0.00 | 82 | 1002.4 |
| 20260505085103 | 21 | 212 | 14.5 | 30.6 | 0.00 | 0.00 | 0.00 | 82 | 1002.5 |
| 20260505084600 | 21 | 164 | 14.5 | 25.7 | 0.00 | 0.00 | 0.00 | 82 | 1002.3 |
| 20260505084058 | 21 | 176 | 9.7 | 27.4 | 0.00 | 0.00 | 0.00 | 82 | 1002.2 |
| 20260505083555 | 21 | 160 | 12.9 | 19.3 | 0.00 | 0.00 | 0.00 | 82 | 1002.4 |
| 20260505083052 | 21 | 212 | 8.0 | 12.9 | 0.00 | 0.00 | 0.00 | 82 | 1002.1 |
| 20260505082547 | 21 | 175 | 8.0 | 22.5 | 0.00 | 0.00 | 0.00 | 82 | 1002.5 |
| 20260505082045 | 21 | 163 | 9.7 | 24.1 | 0.00 | 0.00 | 0.00 | 82 | 1002.4 |
| 20260505081541 | 21 | 132 | 4.8 | 17.7 | 0.00 | 0.00 | 0.00 | 82 | 1002.4 |